Weather History for Budapest Ferihegy, Hungary

Change the Weather History Date:

Tuesday, June 17, 2014

  Actual Average Record
Temperature  
Mean Temperature 66 °F -  
Max Temperature 73 °F 77 °F 91 °F (2013)
Min Temperature 59 °F 55 °F 42 °F (2004)
Cooling Degree Days 1    
Growing Degree Days 16 (Base 50)    
Moisture  
Dew Point 48 °F    
Average Humidity 54    
Maximum Humidity 82    
Minimum Humidity 38    
Precipitation  
Precipitation 0.00 in - - ()
Sea Level Pressure  
Sea Level Pressure 29.97 in    
Wind  
Wind Speed 5 mph ()    
Max Wind Speed 12 mph    
Max Gust Speed -    
Visibility 6.1 miles    
Events Rain    
Averages and records for this station are not official NWS values.
T = Trace of Precipitation, MM = Missing Value Source: Averaged Metar Reports

Daily Weather History Graph

Daily Weather History Graph

Search for Another Location

Airport:

Trip Planner

Search our weather history database for the weather conditions in past years. The results will help you decide how hot, cold, wet, or windy it might be!

Date:

Astronomy

Jun. 17, 2014 Rise Set
Actual Time 4:45 AM CEST 8:42 PM CEST
Civil Twilight 4:04 AM CEST 9:22 PM CEST
Nautical Twilight 3:09 AM CEST 10:18 PM CEST
Astronomical Twilight 1:41 AM CEST 11:46 PM CEST
Moon 11:39 PM CEST (6/17) 9:56 AM CEST (6/17)
Length of Visible Light 17h 17m
Length of Day
15h 57m
Waning Gibbous, 76% of the Moon is Illuminated
Jun 17
Waning Gibbous
Jun 19
Last Quarter
Jun 27
New
Jul 5
First Quarter
Jul 12
Full

Hourly Weather History & Observations

Time (CEST) Temp. Dew Point Humidity Pressure Visibility Wind Dir Wind Speed Gust Speed Precip Events Conditions
12:00 AM 60.8 °F 48.2 °F 63% 29.98 in - Variable 2.3 mph - N/A   Clear
12:30 AM 62.6 °F 48.2 °F 59% 29.98 in - Variable 3.5 mph - N/A   Clear
1:00 AM 62.6 °F 48.2 °F 59% 29.95 in - Variable 2.3 mph - N/A   Clear
1:30 AM 62.6 °F 48.2 °F 59% 29.95 in - Variable 2.3 mph - N/A   Clear
2:00 AM 62.6 °F 48.2 °F 59% 29.95 in - NNE 4.6 mph - N/A   Clear
2:30 AM 62.6 °F 48.2 °F 59% 29.95 in - East 8.1 mph - N/A   Clear
3:00 AM 60.8 °F 48.2 °F 63% 29.95 in - ENE 4.6 mph - N/A   Clear
3:30 AM 60.8 °F 48.2 °F 63% 29.95 in - East 5.8 mph - N/A   Clear
4:00 AM 60.8 °F 48.2 °F 63% 29.95 in - ENE 6.9 mph - N/A   Clear
4:30 AM 59.0 °F 48.2 °F 67% 29.95 in - NE 4.6 mph - N/A   Clear
5:00 AM 59.0 °F 48.2 °F 67% 29.95 in - NNE 4.6 mph - N/A   Clear
5:30 AM 59.0 °F 46.4 °F 63% 29.95 in - East 5.8 mph - N/A   Clear
6:00 AM 59.0 °F 48.2 °F 67% 29.98 in - ENE 4.6 mph - N/A   Clear
6:30 AM 59.0 °F 48.2 °F 67% 29.98 in - Variable 3.5 mph - N/A   Clear
7:00 AM 60.8 °F 46.4 °F 59% 29.98 in - Variable 3.5 mph - N/A   Clear
7:30 AM 62.6 °F 48.2 °F 59% 29.98 in - NE 5.8 mph - N/A   Clear
8:00 AM 62.6 °F 46.4 °F 55% 29.98 in - NNE 5.8 mph - N/A   Clear
8:30 AM 64.4 °F 46.4 °F 52% 29.98 in - NNE 5.8 mph - N/A   Clear
9:00 AM 64.4 °F 46.4 °F 52% 29.98 in - NE 5.8 mph - N/A   Clear
9:30 AM 66.2 °F 46.4 °F 49% 29.98 in - ENE 8.1 mph - N/A   Clear
10:00 AM 66.2 °F 44.6 °F 46% 29.98 in 6.2 mi ESE 8.1 mph - N/A   Mostly Cloudy
10:30 AM 68.0 °F 46.4 °F 46% 29.98 in 6.2 mi ESE 8.1 mph - N/A   Mostly Cloudy
11:00 AM 69.8 °F 44.6 °F 40% 29.98 in 6.2 mi East 8.1 mph - N/A   Mostly Cloudy
11:30 AM 71.6 °F 44.6 °F 38% 29.98 in - ESE 9.2 mph - N/A   Clear
12:00 PM 71.6 °F 44.6 °F 38% 29.98 in - SE 10.4 mph - N/A   Clear
12:30 PM 71.6 °F 46.4 °F 41% 29.98 in - SE 11.5 mph - N/A   Clear
1:00 PM 71.6 °F 44.6 °F 38% 29.98 in - SSE 11.5 mph - N/A   Clear
1:30 PM 71.6 °F 44.6 °F 38% 29.98 in - SSE 8.1 mph - N/A   Clear
2:00 PM 71.6 °F 44.6 °F 38% 29.98 in - SSE 6.9 mph - N/A   Clear
2:30 PM 71.6 °F 44.6 °F 38% 29.98 in 6.2 mi WSW 4.6 mph - N/A Rain Light Rain Showers
3:00 PM 69.8 °F 46.4 °F 43% 29.98 in - West 6.9 mph - N/A   Clear
3:30 PM 71.6 °F 46.4 °F 41% 29.98 in - SSW 8.1 mph - N/A   Clear
4:00 PM 73.4 °F 48.2 °F 41% 29.95 in - SSE 6.9 mph - N/A   Clear
4:30 PM 73.4 °F 48.2 °F 41% 29.95 in - SSE 8.1 mph - N/A   Clear
5:00 PM 71.6 °F 48.2 °F 43% 29.95 in - South 8.1 mph - N/A   Clear
5:30 PM 71.6 °F 48.2 °F 43% 29.95 in - South 8.1 mph - N/A   Clear
6:00 PM 71.6 °F 46.4 °F 41% 29.95 in 6.2 mi SSW 8.1 mph - N/A   Mostly Cloudy
6:30 PM 73.4 °F 46.4 °F 38% 29.95 in 6.2 mi SSW 9.2 mph - N/A   Scattered Clouds
7:00 PM 71.6 °F 50.0 °F 46% 29.95 in 6.2 mi SSW 10.4 mph - N/A   Mostly Cloudy
7:30 PM 69.8 °F 50.0 °F 49% 29.95 in 6.2 mi SSW 10.4 mph - N/A   Mostly Cloudy
8:00 PM 69.8 °F 51.8 °F 53% 29.95 in 6.2 mi South 5.8 mph - N/A Rain Light Rain Showers
8:30 PM 64.4 °F 55.4 °F 73% 29.98 in 5.0 mi SSW 11.5 mph - N/A Rain Light Rain Showers
9:00 PM 64.4 °F 57.2 °F 77% 29.98 in 6.2 mi SSW 6.9 mph - N/A   Scattered Clouds
9:30 PM 64.4 °F 51.8 °F 64% 29.98 in 6.2 mi WSW 8.1 mph - N/A   Scattered Clouds
10:00 PM 62.6 °F 51.8 °F 68% 29.98 in - WSW 9.2 mph - N/A   Clear
10:30 PM 60.8 °F 51.8 °F 72% 30.01 in - WSW 4.6 mph - N/A   Clear
11:00 PM 59.0 °F 53.6 °F 82% 30.01 in - Variable 3.5 mph - N/A   Clear
11:30 PM 59.0 °F 51.8 °F 77% 30.01 in - NW 4.6 mph - N/A   Clear